User: anonymous
Location: Caltech
(34.1382°N, 118.1253°W)
Time: 14:30:32
(UTC-07:00)
Language:

Iridium 65 - Orbit

View from above orbital plane
View from above orbital plane
View from above satellite
View from above satellite

Ground track
Ground track

The orbit data is extracted from the following two-line orbital elements,

1 25288U 98021D   14114.19724653  .00000456  00000-0  15587-3 0  7366
2 25288 086.3968 344.5678 0002289 105.4315 043.3356 14.34216401840185
Epoch (UTC): 24 April 2014 04:44:02
Eccentricity: 0.0002289
inclination: 86.3968°
perigee height: 776 km
apogee height: 779 km
right ascension of ascending node: 344.5678°
argument of perigee: 105.4315°
revolutions per day: 14.34216401
mean anomaly at epoch: 43.3356°
orbit number at epoch: 84018

The dashed part of the orbit path shows where the satellite is in the earth's shadow,  

DLR